Sulphur Springs, TX

9:39 PM CST on November 20, 2017 (GMT -0600)
Sulphur Springs Municipal

Weather History for KSLR - February, 2013

Change the Weather History Date:

Wednesday, February 13, 2013

  Actual Average (KGVT) Record (KGVT)
Temperature  
Mean Temperature 45 °F -  
Max Temperature 51 °F 57 °F 73 °F (2005)
Min Temperature 39 °F 43 °F 23 °F (2006)
Degree Days  
Heating Degree Days 20    
Moisture  
Dew Point 36 °F    
Average Humidity 75    
Maximum Humidity 93    
Minimum Humidity 54    
Precipitation  
Precipitation 0.00 in - - ()
Sea Level Pressure  
Sea Level Pressure 30.09 in    
Wind  
Wind Speed 11 mph (WNW)    
Max Wind Speed 20 mph    
Max Gust Speed 25 mph    
Visibility 10 miles    
Events      
Averages and records for this station are not official NWS values.
T = Trace of Precipitation, MM = Missing Value Source: NWS Daily Summary

Daily Weather History Graph

Daily Weather History Graph

Search for Another Location

Airport or City:

Trip Planner

Search our weather history database for the weather conditions in past years. The results will help you decide how hot, cold, wet, or windy it might be!

Date:

Astronomy

Feb. 13, 2013 Rise Set
Actual Time 7:07 AM CST 6:06 PM CST
Civil Twilight 6:42 AM CST 6:31 PM CST
Nautical Twilight 6:13 AM CST 7:00 PM CST
Astronomical Twilight 5:44 AM CST 7:29 PM CST
Moon 8:52 AM CST (2/13) 9:53 PM CST (2/13)
Length of Visible Light 11h 49m
Length of Day
10h 58m
Waxing Crescent, 14% of the Moon is Illuminated
Feb 13
Waxing Crescent
Feb 17
First Quarter
Feb 25
Full
Mar 4
Last Quarter
Mar 11
New

Hourly Weather History & Observations

Time (CST) Temp. Windchill Dew Point Humidity Pressure Visibility Wind Dir Wind Speed Gust Speed Precip Events Conditions
12:15 AM 44.6 °F 38.4 °F 41.0 °F 87% 30.00 in 7.0 mi NW 12.7 mph - N/A   Overcast
12:35 AM 42.8 °F 34.5 °F 41.0 °F 93% 30.01 in 10.0 mi NNW 18.4 mph - N/A   Overcast
12:55 AM 42.8 °F 34.8 °F 39.2 °F 87% 30.01 in 10.0 mi NNW 17.3 mph 21.9 mph N/A   Overcast
1:15 AM 42.8 °F 34.5 °F 39.2 °F 87% 30.01 in 7.0 mi NNW 18.4 mph 21.9 mph N/A   Overcast
1:35 AM 42.8 °F 34.3 °F 37.4 °F 81% 30.02 in 10.0 mi NNW 19.6 mph 25.3 mph N/A   Overcast
1:55 AM 41.0 °F 34.3 °F 37.4 °F 87% 30.02 in 10.0 mi NNW 11.5 mph - N/A   Mostly Cloudy
2:15 AM 41.0 °F 34.7 °F 37.4 °F 87% 30.03 in 10.0 mi NW 10.4 mph - N/A   Mostly Cloudy
2:35 AM 41.0 °F 33.9 °F 37.4 °F 87% 30.04 in 10.0 mi NW 12.7 mph - N/A   Overcast
2:55 AM 41.0 °F 32.2 °F 35.6 °F 81% 30.05 in 10.0 mi NW 18.4 mph 24.2 mph N/A   Overcast
3:15 AM 41.0 °F 33.5 °F 35.6 °F 81% 30.05 in 10.0 mi WNW 13.8 mph - N/A   Overcast
3:35 AM 41.0 °F 32.5 °F 35.6 °F 81% 30.06 in 10.0 mi NNW 17.3 mph - N/A   Overcast
3:55 AM 41.0 °F 33.1 °F 35.6 °F 81% 30.05 in 10.0 mi NW 15.0 mph - N/A   Overcast
4:15 AM 41.0 °F 33.1 °F 35.6 °F 81% 30.06 in 10.0 mi NW 15.0 mph 20.7 mph N/A   Overcast
4:35 AM 41.0 °F 33.1 °F 35.6 °F 81% 30.07 in 10.0 mi NW 15.0 mph - N/A   Overcast
4:55 AM 41.0 °F 33.9 °F 35.6 °F 81% 30.07 in 10.0 mi NW 12.7 mph - N/A   Overcast
5:15 AM 41.0 °F 33.1 °F 35.6 °F 81% 30.08 in 10.0 mi NW 15.0 mph - N/A   Overcast
5:35 AM 39.2 °F 30.8 °F 35.6 °F 87% 30.09 in 10.0 mi NW 15.0 mph - N/A   Overcast
5:55 AM 39.2 °F 32.0 °F 35.6 °F 87% 30.09 in 10.0 mi NW 11.5 mph - N/A   Overcast
6:15 AM 39.2 °F 30.8 °F 35.6 °F 87% 30.10 in 10.0 mi NW 15.0 mph - N/A   Overcast
6:35 AM 39.2 °F 30.5 °F 35.6 °F 87% 30.11 in 10.0 mi NNW 16.1 mph - N/A   Overcast
6:55 AM 39.2 °F 30.8 °F 35.6 °F 87% 30.11 in 10.0 mi NW 15.0 mph - N/A   Overcast
7:15 AM 39.2 °F 32.0 °F 35.6 °F 87% 30.11 in 10.0 mi NW 11.5 mph - N/A   Overcast
7:35 AM 39.2 °F 31.6 °F 33.8 °F 81% 30.11 in 10.0 mi NW 12.7 mph - N/A   Overcast
7:55 AM 39.2 °F 30.8 °F 33.8 °F 81% 30.12 in 10.0 mi NNW 15.0 mph - N/A   Overcast
8:15 AM 39.2 °F 32.0 °F 35.6 °F 87% 30.13 in 10.0 mi NNW 11.5 mph - N/A   Overcast
8:35 AM 41.0 °F 34.3 °F 35.6 °F 81% 30.14 in 10.0 mi NNW 11.5 mph - N/A   Overcast
8:55 AM 41.0 °F 34.3 °F 35.6 °F 81% 30.14 in 10.0 mi NW 11.5 mph - N/A   Overcast
9:15 AM 41.0 °F 35.2 °F 35.6 °F 81% 30.15 in 10.0 mi NW 9.2 mph - N/A   Overcast
9:35 AM 41.0 °F 35.2 °F 35.6 °F 81% 30.16 in 10.0 mi NW 9.2 mph - N/A   Overcast
9:55 AM 41.0 °F 34.7 °F 33.8 °F 76% 30.17 in 10.0 mi NW 10.4 mph - N/A   Overcast
10:15 AM 41.0 °F 34.7 °F 35.6 °F 81% 30.17 in 10.0 mi NW 10.4 mph - N/A   Overcast
10:35 AM 41.0 °F 35.8 °F 35.6 °F 81% 30.17 in 10.0 mi NW 8.1 mph - N/A   Overcast
10:55 AM 41.0 °F 34.7 °F 35.6 °F 81% 30.18 in 10.0 mi WNW 10.4 mph - N/A   Overcast
11:15 AM 41.0 °F 36.4 °F 35.6 °F 81% 30.18 in 10.0 mi WNW 6.9 mph - N/A   Overcast
11:35 AM 42.8 °F 38.6 °F 35.6 °F 76% 30.17 in 10.0 mi WNW 6.9 mph - N/A   Overcast
11:55 AM 42.8 °F 41.1 °F 35.6 °F 76% 30.17 in 10.0 mi West 3.5 mph - N/A   Overcast
12:15 PM 42.8 °F 41.1 °F 35.6 °F 76% 30.16 in 10.0 mi West 3.5 mph - N/A   Overcast
12:35 PM 44.6 °F - 35.6 °F 71% 30.15 in 10.0 mi Calm Calm - N/A   Overcast
12:55 PM 42.8 °F - 35.6 °F 76% 30.14 in 10.0 mi Calm Calm - N/A   Overcast
1:15 PM 44.6 °F 43.1 °F 35.6 °F 71% 30.13 in 10.0 mi West 3.5 mph - N/A   Mostly Cloudy
1:35 PM 46.4 °F 45.2 °F 35.6 °F 66% 30.12 in 10.0 mi West 3.5 mph - N/A   Scattered Clouds
1:55 PM 46.4 °F 44.3 °F 35.6 °F 66% 30.11 in 10.0 mi NW 4.6 mph - N/A   Clear
2:15 PM 46.4 °F - 35.6 °F 66% 30.10 in 10.0 mi Calm Calm - N/A   Clear
2:35 PM 48.2 °F - 35.6 °F 62% 30.09 in 10.0 mi West 3.5 mph - N/A   Clear
2:55 PM 50.0 °F - 35.6 °F 58% 30.08 in 10.0 mi WSW 5.8 mph - N/A   Clear
3:15 PM 50.0 °F - 35.6 °F 58% 30.08 in 10.0 mi Calm Calm - N/A   Clear
3:35 PM 50.0 °F - 35.6 °F 58% 30.07 in 10.0 mi West 4.6 mph - N/A   Clear
3:55 PM 50.0 °F - 35.6 °F 58% 30.07 in 10.0 mi WNW 4.6 mph - N/A   Clear
4:15 PM 51.8 °F - 35.6 °F 54% 30.07 in 10.0 mi West 5.8 mph - N/A   Clear
4:35 PM 51.8 °F - 35.6 °F 54% 30.06 in 10.0 mi Calm Calm - N/A   Clear
4:55 PM 51.8 °F - 35.6 °F 54% 30.06 in 10.0 mi Calm Calm - N/A   Clear
5:15 PM 51.8 °F - 35.6 °F 54% 30.06 in 10.0 mi WSW 4.6 mph - N/A   Clear
5:35 PM 51.8 °F - 35.6 °F 54% 30.06 in 10.0 mi WSW 5.8 mph - N/A   Clear
5:55 PM 50.0 °F - 35.6 °F 58% 30.06 in 10.0 mi SW 4.6 mph - N/A   Clear
6:15 PM 48.2 °F - 35.6 °F 62% 30.06 in 10.0 mi WSW 4.6 mph - N/A   Clear
6:35 PM 46.4 °F 44.3 °F 35.6 °F 66% 30.06 in 10.0 mi SSW 4.6 mph - N/A   Clear
6:55 PM 46.4 °F 43.5 °F 35.6 °F 66% 30.06 in 10.0 mi South 5.8 mph - N/A   Clear
7:15 PM 46.4 °F 43.5 °F 35.6 °F 66% 30.06 in 10.0 mi South 5.8 mph - N/A   Clear
7:35 PM 46.4 °F 43.5 °F 35.6 °F 66% 30.06 in 10.0 mi South 5.8 mph - N/A   Clear
7:55 PM 44.6 °F 42.2 °F 35.6 °F 71% 30.07 in 10.0 mi South 4.6 mph - N/A   Clear
8:15 PM 44.6 °F 40.7 °F 35.6 °F 71% 30.07 in 10.0 mi South 6.9 mph - N/A   Clear
8:35 PM 44.6 °F 42.2 °F 35.6 °F 71% 30.07 in 10.0 mi South 4.6 mph - N/A   Clear
8:55 PM 44.6 °F 41.4 °F 35.6 °F 71% 30.07 in 10.0 mi South 5.8 mph - N/A   Clear
9:15 PM 44.6 °F 41.4 °F 35.6 °F 71% 30.07 in 10.0 mi South 5.8 mph - N/A   Clear
9:35 PM 44.6 °F 41.4 °F 35.6 °F 71% 30.08 in 10.0 mi South 5.8 mph - N/A   Clear
9:55 PM 42.8 °F 38.6 °F 35.6 °F 76% 30.08 in 10.0 mi South 6.9 mph - N/A   Clear
10:15 PM 42.8 °F 38.6 °F 35.6 °F 76% 30.08 in 10.0 mi South 6.9 mph - N/A   Clear
10:35 PM 42.8 °F 38.6 °F 35.6 °F 76% 30.08 in 10.0 mi South 6.9 mph - N/A   Clear
10:55 PM 42.8 °F 39.3 °F 35.6 °F 76% 30.09 in 10.0 mi South 5.8 mph - N/A   Clear
11:15 PM 42.8 °F 40.1 °F 35.6 °F 76% 30.08 in 10.0 mi South 4.6 mph - N/A   Clear
11:35 PM 41.0 °F 37.1 °F 35.6 °F 81% 30.08 in 10.0 mi SSW 5.8 mph - N/A   Clear
11:55 PM 41.0 °F 39.0 °F 35.6 °F 81% 30.09 in 10.0 mi SSW 3.5 mph - N/A   Clear